Terug naar catalogus

CONNECTA IOT-9

ActiefCommunicatieSSO
NORAD 64534·PAYLOAD·🇹🇷 Turkey

Gelanceerd Jun 23, 2025 vanaf Vandenberg Space Force Base

Loading…

Volgende Passages (komende 24 uur)

TLE

VersSource: Space-Track

Epoch: Sep 14, 2026, 13:41 UTC

1 64534U 25135G   26257.57049503  .00006037  00000-0  27805-3 0  9994
2 64534  97.4836  11.7026 0004458 205.6986 154.4028 15.20657152 68401

Volg CONNECTA IOT-9 in realtime met AllMySat

Download on the App Store